Simultaneous Nadir Overpasses (SNOs) Predictions

Prediction of SNOs between GOES-17 and NOAA-19 Satellite Orbit:

Table of predicted SNOs for the next 14.0 days since TLE Epoch: 1/10/2020
Index Date Time (GOES-17) GOES-17 Lat,Lon NOAA-19 Lat,Lon Distance(km) Time Diff (sec)
1 01/11/2020 02:53:50 -0.05,-137.19 -1.04,-141.36 476.43 80
2 01/12/2020 02:42:11 -0.05,-137.18 -0.39,-138.51 152.20 80
3 01/13/2020 02:33:12 -0.06,-137.17 0.27,-135.66 171.97 80
4 01/14/2020 02:21:33 -0.06,-137.16 0.98,-132.82 495.94 80
5 01/15/2020 14:51:28 0.06,-137.16 0.88,-140.61 394.74 80
6 01/16/2020 14:39:49 0.06,-137.14 0.21,-137.76 70.93 80
7 01/17/2020 14:30:49 0.07,-137.13 -0.46,-134.92 252.76 80
8 01/20/2020 02:49:20 -0.07,-137.07 -0.73,-139.92 325.54 80
9 01/21/2020 02:37:41 -0.07,-137.05 -0.07,-137.07 2.55 80
10 01/22/2020 02:28:41 -0.08,-137.03 0.59,-134.23 320.50 80
11 01/24/2020 14:46:56 0.09,-136.99 0.56,-139.17 248.26 80




NCC Satellite Simultaneous Nadir Overpasses (SNOs) Prediction Service
